Time,TemperatureF,DewpointF,PressureIn,WindDirection,WindDirectionDegrees,WindSpeedMPH,WindSpeedGustMPH,Humidity,HourlyPrecipIn,Conditions,Clouds,dailyrainin,SoftwareType,DateUTC
2013-02-13 00:02:00,18.8,7.9,30.57,South,178,1.0,3.0,62,0.00,,,0.00,Wunderground v.1.15,2013-02-13 07:02:00,
2013-02-13 00:04:00,18.9,8.0,30.57,SSE,158,2.0,3.0,62,0.00,,,0.00,Wunderground v.1.15,2013-02-13 07:04:00,
2013-02-13 00:08:00,18.9,7.7,30.57,SSE,161,2.0,4.0,61,0.00,,,0.00,Wunderground v.1.15,2013-02-13 07:08:00,
2013-02-13 00:12:00,18.9,7.7,30.57,SSE,153,3.0,3.0,61,0.00,,,0.00,Wunderground v.1.15,2013-02-13 07:12:00,
2013-02-13 00:14:00,19.1,7.8,30.57,SSE,157,2.0,3.0,61,0.00,,,0.00,Wunderground v.1.15,2013-02-13 07:14:00,
2013-02-13 00:18:00,19.2,8.3,30.56,South,175,2.0,4.0,62,0.00,,,0.00,Wunderground v.1.15,2013-02-13 07:18:00,
2013-02-13 00:20:00,19.2,8.3,30.56,South,175,1.0,1.0,62,0.00,,,0.00,Wunderground v.1.15,2013-02-13 07:20:00,
2013-02-13 00:22:00,19.4,8.5,30.56,SE,139,1.0,3.0,62,0.00,,,0.00,Wunderground v.1.15,2013-02-13 07:22:00,
2013-02-13 00:24:00,19.4,8.5,30.56,SE,131,1.0,3.0,62,0.00,,,0.00,Wunderground v.1.15,2013-02-13 07:24:00,
2013-02-13 00:28:00,19.7,8.4,30.56,SE,133,2.0,3.0,61,0.00,,,0.00,Wunderground v.1.15,2013-02-13 07:28:00,
2013-02-13 00:32:00,19.9,8.2,30.55,SE,135,2.0,3.0,60,0.00,,,0.00,Wunderground v.1.15,2013-02-13 07:32:00,
2013-02-13 00:34:00,19.9,8.6,30.55,SSE,165,2.0,3.0,61,0.00,,,0.00,Wunderground v.1.15,2013-02-13 07:34:00,
2013-02-13 00:36:00,19.9,8.6,30.55,SSE,156,2.0,3.0,61,0.00,,,0.00,Wunderground v.1.15,2013-02-13 07:36:00,
2013-02-13 00:38:00,19.9,8.2,30.55,SSE,156,2.0,4.0,60,0.00,,,0.00,Wunderground v.1.15,2013-02-13 07:38:00,
2013-02-13 00:42:00,19.9,7.9,30.55,SE,137,2.0,2.0,59,0.00,,,0.00,Wunderground v.1.15,2013-02-13 07:42:00,
2013-02-13 00:48:00,19.9,7.9,30.56,ESE,119,2.0,3.0,59,0.00,,,0.00,Wunderground v.1.15,2013-02-13 07:48:00,
2013-02-13 00:50:00,19.9,8.2,30.56,SSE,167,2.0,3.0,60,0.00,,,0.00,Wunderground v.1.15,2013-02-13 07:50:00,
2013-02-13 00:56:00,20.0,8.3,30.56,SE,135,2.0,2.0,60,0.00,,,0.00,Wunderground v.1.15,2013-02-13 07:56:00,
2013-02-13 01:00:00,20.0,7.6,30.57,ESE,119,2.0,3.0,58,0.00,,,0.00,Wunderground v.1.15,2013-02-13 08:00:00,
2013-02-13 01:04:00,19.9,7.5,30.57,SE,146,2.0,3.0,58,0.00,,,0.00,Wunderground v.1.15,2013-02-13 08:04:00,
2013-02-13 01:08:00,19.9,7.5,30.57,SE,127,2.0,3.0,58,0.00,,,0.00,Wunderground v.1.15,2013-02-13 08:08:00,
2013-02-13 01:10:00,19.9,7.5,30.57,SE,143,3.0,4.0,58,0.00,,,0.00,Wunderground v.1.15,2013-02-13 08:10:00,
2013-02-13 01:12:00,19.9,7.5,30.57,SE,134,3.0,4.0,58,0.00,,,0.00,Wunderground v.1.15,2013-02-13 08:12:00,
2013-02-13 01:14:00,19.9,7.5,30.57,SE,138,3.0,4.0,58,0.00,,,0.00,Wunderground v.1.15,2013-02-13 08:14:00,
2013-02-13 01:16:00,20.0,8.0,30.56,SE,138,3.0,4.0,59,0.00,,,0.00,Wunderground v.1.15,2013-02-13 08:16:00,
2013-02-13 01:20:00,20.0,7.6,30.56,SE,146,2.0,3.0,58,0.00,,,0.00,Wunderground v.1.15,2013-02-13 08:20:00,
2013-02-13 01:22:00,20.2,8.1,30.56,SE,144,2.0,3.0,59,0.00,,,0.00,Wunderground v.1.15,2013-02-13 08:22:00,
2013-02-13 01:26:00,20.2,8.1,30.56,SSE,151,1.0,3.0,59,0.00,,,0.00,Wunderground v.1.15,2013-02-13 08:26:00,
2013-02-13 01:28:00,20.3,8.2,30.56,SSE,150,1.0,3.0,59,0.00,,,0.00,Wunderground v.1.15,2013-02-13 08:28:00,
2013-02-13 01:30:00,20.3,8.6,30.56,SSE,151,1.0,1.0,60,0.00,,,0.00,Wunderground v.1.15,2013-02-13 08:30:00,
2013-02-13 01:32:00,20.5,8.8,30.56,SSE,151,1.0,1.0,60,0.00,,,0.00,Wunderground v.1.15,2013-02-13 08:32:00,
2013-02-13 01:34:00,20.5,8.8,30.56,SSE,151,1.0,1.0,60,0.00,,,0.00,Wunderground v.1.15,2013-02-13 08:34:00,
2013-02-13 01:36:00,20.6,8.9,30.56,SSE,151,0.0,2.0,60,0.00,,,0.00,Wunderground v.1.15,2013-02-13 08:36:00,
2013-02-13 01:40:00,20.8,8.3,30.56,SSE,154,1.0,3.0,58,0.00,,,0.00,Wunderground v.1.15,2013-02-13 08:40:00,
2013-02-13 01:42:00,20.8,8.3,30.56,SSE,157,2.0,3.0,58,0.00,,,0.00,Wunderground v.1.15,2013-02-13 08:42:00,
2013-02-13 01:44:00,20.8,8.3,30.56,South,171,2.0,6.0,58,0.00,,,0.00,Wunderground v.1.15,2013-02-13 08:44:00,
2013-02-13 01:46:00,20.8,7.9,30.54,SSE,165,3.0,6.0,57,0.00,,,0.00,Wunderground v.1.15,2013-02-13 08:46:00,
2013-02-13 01:50:00,20.8,7.9,30.54,South,173,3.0,6.0,57,0.00,,,0.00,Wunderground v.1.15,2013-02-13 08:50:00,
2013-02-13 01:54:00,20.8,7.9,30.54,SSE,165,3.0,6.0,57,0.00,,,0.00,Wunderground v.1.15,2013-02-13 08:54:00,
2013-02-13 01:56:00,20.8,8.3,30.54,South,169,3.0,6.0,58,0.00,,,0.00,Wunderground v.1.15,2013-02-13 08:56:00,
2013-02-13 01:58:00,20.8,8.3,30.54,SSE,157,2.0,6.0,58,0.00,,,0.00,Wunderground v.1.15,2013-02-13 08:58:00,
2013-02-13 02:04:00,20.8,8.3,30.53,SSE,157,2.0,5.0,58,0.00,,,0.00,Wunderground v.1.15,2013-02-13 09:04:00,
2013-02-13 02:10:00,21.0,8.9,30.53,SE,131,2.0,2.0,59,0.00,,,0.00,Wunderground v.1.15,2013-02-13 09:10:00,
2013-02-13 02:12:00,21.0,8.9,30.53,South,174,2.0,2.0,59,0.00,,,0.00,Wunderground v.1.15,2013-02-13 09:12:00,
2013-02-13 02:18:00,21.0,8.9,30.52,SSE,150,2.0,3.0,59,0.00,,,0.00,Wunderground v.1.15,2013-02-13 09:18:00,
2013-02-13 02:24:00,21.0,8.5,30.52,SSE,157,2.0,4.0,58,0.00,,,0.00,Wunderground v.1.15,2013-02-13 09:24:00,
2013-02-13 02:28:00,21.0,8.9,30.52,SSE,155,2.0,4.0,59,0.00,,,0.00,Wunderground v.1.15,2013-02-13 09:28:00,
2013-02-13 02:30:00,20.8,8.7,30.52,SSE,156,1.0,1.0,59,0.00,,,0.00,Wunderground v.1.15,2013-02-13 09:30:00,
2013-02-13 02:32:00,20.6,8.5,30.52,SSE,155,1.0,1.0,59,0.00,,,0.00,Wunderground v.1.15,2013-02-13 09:32:00,
2013-02-13 02:34:00,20.6,8.5,30.52,SSE,156,1.0,1.0,59,0.00,,,0.00,Wunderground v.1.15,2013-02-13 09:34:00,
2013-02-13 02:40:00,20.5,8.0,30.52,SSE,161,1.0,1.0,58,0.00,,,0.00,Wunderground v.1.15,2013-02-13 09:40:00,
2013-02-13 02:42:00,20.3,8.2,30.52,SSE,161,1.0,1.0,59,0.00,,,0.00,Wunderground v.1.15,2013-02-13 09:42:00,
2013-02-13 02:48:00,20.3,8.2,30.52,SSE,161,1.0,1.0,59,0.00,,,0.00,Wunderground v.1.15,2013-02-13 09:48:00,
2013-02-13 02:50:00,20.3,8.2,30.52,SSE,161,1.0,1.0,59,0.00,,,0.00,Wunderground v.1.15,2013-02-13 09:50:00,
2013-02-13 02:54:00,20.2,8.1,30.52,SSE,161,1.0,2.0,59,0.00,,,0.00,Wunderground v.1.15,2013-02-13 09:54:00,
2013-02-13 02:56:00,20.2,8.1,30.52,SSE,161,1.0,2.0,59,0.00,,,0.00,Wunderground v.1.15,2013-02-13 09:56:00,
2013-02-13 03:00:00,20.2,8.1,30.52,SSE,161,1.0,2.0,59,0.00,,,0.00,Wunderground v.1.15,2013-02-13 10:00:00,
2013-02-13 03:02:00,20.2,8.1,30.52,SSE,161,1.0,2.0,59,0.00,,,0.00,Wunderground v.1.15,2013-02-13 10:02:00,
2013-02-13 03:04:00,20.2,8.1,30.52,SSE,161,1.0,2.0,59,0.00,,,0.00,Wunderground v.1.15,2013-02-13 10:04:00,
2013-02-13 03:08:00,20.2,8.5,30.52,SSE,161,0.0,2.0,60,0.00,,,0.00,Wunderground v.1.15,2013-02-13 10:08:00,
2013-02-13 03:10:00,20.2,8.5,30.52,SSE,161,1.0,2.0,60,0.00,,,0.00,Wunderground v.1.15,2013-02-13 10:10:00,
2013-02-13 03:14:00,20.2,8.5,30.52,SSE,161,1.0,2.0,60,0.00,,,0.00,Wunderground v.1.15,2013-02-13 10:14:00,
2013-02-13 03:16:00,20.2,8.5,30.51,SSE,161,0.0,2.0,60,0.00,,,0.00,Wunderground v.1.15,2013-02-13 10:16:00,
2013-02-13 03:18:00,20.2,8.5,30.51,SSE,161,0.0,2.0,60,0.00,,,0.00,Wunderground v.1.15,2013-02-13 10:18:00,
2013-02-13 03:24:00,20.2,8.9,30.51,SSE,161,0.0,0.0,61,0.00,,,0.00,Wunderground v.1.15,2013-02-13 10:24:00,
2013-02-13 03:28:00,20.3,9.0,30.51,SSE,161,0.0,0.0,61,0.00,,,0.00,Wunderground v.1.15,2013-02-13 10:28:00,
2013-02-13 03:32:00,20.3,9.3,30.50,SSE,161,0.0,1.0,62,0.00,,,0.00,Wunderground v.1.15,2013-02-13 10:32:00,
2013-02-13 03:34:00,20.3,9.3,30.50,SSE,161,0.0,1.0,62,0.00,,,0.00,Wunderground v.1.15,2013-02-13 10:34:00,
2013-02-13 03:36:00,20.5,9.5,30.50,SSE,161,0.0,1.0,62,0.00,,,0.00,Wunderground v.1.15,2013-02-13 10:36:00,
2013-02-13 03:38:00,20.5,9.5,30.50,SSE,161,0.0,2.0,62,0.00,,,0.00,Wunderground v.1.15,2013-02-13 10:38:00,
2013-02-13 03:40:00,20.5,9.5,30.50,SSE,161,0.0,0.0,62,0.00,,,0.00,Wunderground v.1.15,2013-02-13 10:40:00,
2013-02-13 03:42:00,20.5,9.5,30.50,SSE,161,0.0,0.0,62,0.00,,,0.00,Wunderground v.1.15,2013-02-13 10:42:00,
2013-02-13 03:46:00,20.5,9.9,30.50,SSE,161,0.0,0.0,63,0.00,,,0.00,Wunderground v.1.15,2013-02-13 10:46:00,
2013-02-13 03:48:00,20.5,9.9,30.50,SSE,161,0.0,0.0,63,0.00,,,0.00,Wunderground v.1.15,2013-02-13 10:48:00,
2013-02-13 03:52:00,20.5,9.9,30.50,SSE,161,0.0,0.0,63,0.00,,,0.00,Wunderground v.1.15,2013-02-13 10:52:00,
2013-02-13 03:56:00,20.6,9.6,30.50,SSE,161,0.0,0.0,62,0.00,,,0.00,Wunderground v.1.15,2013-02-13 10:56:00,
2013-02-13 03:58:00,20.6,9.6,30.50,SSE,161,0.0,0.0,62,0.00,,,0.00,Wunderground v.1.15,2013-02-13 10:58:00,
2013-02-13 04:00:00,20.8,9.5,30.50,SE,130,0.0,1.0,61,0.00,,,0.00,Wunderground v.1.15,2013-02-13 11:00:00,
2013-02-13 04:02:00,20.8,9.5,30.50,SE,130,0.0,3.0,61,0.00,,,0.00,Wunderground v.1.15,2013-02-13 11:02:00,
2013-02-13 04:08:00,21.0,9.3,30.50,SE,130,1.0,3.0,60,0.00,,,0.00,Wunderground v.1.15,2013-02-13 11:08:00,
2013-02-13 04:10:00,21.0,9.3,30.50,SE,130,1.0,1.0,60,0.00,,,0.00,Wunderground v.1.15,2013-02-13 11:10:00,
2013-02-13 04:12:00,21.0,9.3,30.50,SE,130,1.0,1.0,60,0.00,,,0.00,Wunderground v.1.15,2013-02-13 11:12:00,
2013-02-13 04:14:00,21.0,8.9,30.50,SE,130,0.0,1.0,59,0.00,,,0.00,Wunderground v.1.15,2013-02-13 11:14:00,
2013-02-13 04:18:00,21.1,9.0,30.50,SE,129,1.0,1.0,59,0.00,,,0.00,Wunderground v.1.15,2013-02-13 11:18:00,
2013-02-13 04:20:00,21.1,9.0,30.50,SE,130,1.0,3.0,59,0.00,,,0.00,Wunderground v.1.15,2013-02-13 11:20:00,
2013-02-13 04:24:00,21.1,9.0,30.50,SE,130,1.0,3.0,59,0.00,,,0.00,Wunderground v.1.15,2013-02-13 11:24:00,
2013-02-13 04:26:00,21.1,9.0,30.50,SE,130,1.0,3.0,59,0.00,,,0.00,Wunderground v.1.15,2013-02-13 11:26:00,
2013-02-13 04:30:00,21.0,8.9,30.50,SE,130,0.0,0.0,59,0.00,,,0.00,Wunderground v.1.15,2013-02-13 11:30:00,
2013-02-13 04:32:00,21.0,8.9,30.50,SE,130,0.0,0.0,59,0.00,,,0.00,Wunderground v.1.15,2013-02-13 11:32:00,
2013-02-13 04:34:00,21.0,8.9,30.50,SE,130,0.0,0.0,59,0.00,,,0.00,Wunderground v.1.15,2013-02-13 11:34:00,
2013-02-13 04:38:00,21.0,9.3,30.50,SE,130,0.0,0.0,60,0.00,,,0.00,Wunderground v.1.15,2013-02-13 11:38:00,
2013-02-13 04:40:00,21.1,9.4,30.50,SE,130,0.0,3.0,60,0.00,,,0.00,Wunderground v.1.15,2013-02-13 11:40:00,
2013-02-13 04:42:00,21.1,9.4,30.50,SE,130,0.0,3.0,60,0.00,,,0.00,Wunderground v.1.15,2013-02-13 11:42:00,
2013-02-13 04:44:00,21.1,9.7,30.50,SE,129,0.0,3.0,61,0.00,,,0.00,Wunderground v.1.15,2013-02-13 11:44:00,
2013-02-13 04:48:00,21.3,9.9,30.50,SE,130,0.0,3.0,61,0.00,,,0.00,Wunderground v.1.15,2013-02-13 11:48:00,
2013-02-13 04:50:00,21.3,10.3,30.50,SE,130,0.0,0.0,62,0.00,,,0.00,Wunderground v.1.15,2013-02-13 11:50:00,
2013-02-13 04:56:00,21.4,10.0,30.50,SE,130,0.0,0.0,61,0.00,,,0.00,Wunderground v.1.15,2013-02-13 11:56:00,
2013-02-13 04:58:00,21.3,9.9,30.50,SE,130,0.0,0.0,61,0.00,,,0.00,Wunderground v.1.15,2013-02-13 11:58:00,
2013-02-13 05:04:00,21.4,10.4,30.51,SE,130,0.0,0.0,62,0.00,,,0.00,Wunderground v.1.15,2013-02-13 12:04:00,
2013-02-13 05:06:00,21.4,10.0,30.51,SE,130,0.0,0.0,61,0.00,,,0.00,Wunderground v.1.15,2013-02-13 12:06:00,
2013-02-13 05:10:00,21.4,10.0,30.51,SE,130,0.0,0.0,61,0.00,,,0.00,Wunderground v.1.15,2013-02-13 12:10:00,
2013-02-13 05:14:00,21.4,10.4,30.51,SE,130,0.0,0.0,62,0.00,,,0.00,Wunderground v.1.15,2013-02-13 12:14:00,
2013-02-13 05:18:00,21.4,10.4,30.52,SE,130,0.0,0.0,62,0.00,,,0.00,Wunderground v.1.15,2013-02-13 12:18:00,
2013-02-13 05:20:00,21.6,10.6,30.52,SE,130,0.0,0.0,62,0.00,,,0.00,Wunderground v.1.15,2013-02-13 12:20:00,
2013-02-13 05:22:00,21.6,10.6,30.52,SE,130,0.0,0.0,62,0.00,,,0.00,Wunderground v.1.15,2013-02-13 12:22:00,
2013-02-13 05:24:00,21.6,10.2,30.52,SE,130,0.0,2.0,61,0.00,,,0.00,Wunderground v.1.15,2013-02-13 12:24:00,
2013-02-13 05:26:00,21.6,10.6,30.52,SE,130,0.0,2.0,62,0.00,,,0.00,Wunderground v.1.15,2013-02-13 12:26:00,
2013-02-13 05:28:00,21.6,10.2,30.52,SE,130,0.0,2.0,61,0.00,,,0.00,Wunderground v.1.15,2013-02-13 12:28:00,
2013-02-13 05:32:00,21.6,10.2,30.52,SE,130,0.0,2.0,61,0.00,,,0.00,Wunderground v.1.15,2013-02-13 12:32:00,
2013-02-13 05:34:00,21.6,10.2,30.52,SE,130,0.0,2.0,61,0.00,,,0.00,Wunderground v.1.15,2013-02-13 12:34:00,
2013-02-13 05:40:00,21.6,10.2,30.52,SE,130,0.0,1.0,61,0.00,,,0.00,Wunderground v.1.15,2013-02-13 12:40:00,
2013-02-13 05:42:00,21.4,10.0,30.52,SE,130,0.0,1.0,61,0.00,,,0.00,Wunderground v.1.15,2013-02-13 12:42:00,
2013-02-13 05:44:00,21.4,10.0,30.52,SE,130,0.0,1.0,61,0.00,,,0.00,Wunderground v.1.15,2013-02-13 12:44:00,
2013-02-13 05:48:00,21.4,10.0,30.52,SE,130,0.0,1.0,61,0.00,,,0.00,Wunderground v.1.15,2013-02-13 12:48:00,
2013-02-13 05:50:00,21.4,10.0,30.52,SE,130,0.0,0.0,61,0.00,,,0.00,Wunderground v.1.15,2013-02-13 12:50:00,
2013-02-13 05:56:00,21.3,9.9,30.52,SE,130,0.0,1.0,61,0.00,,,0.00,Wunderground v.1.15,2013-02-13 12:56:00,
2013-02-13 05:58:00,21.1,10.1,30.52,SE,130,0.0,1.0,62,0.00,,,0.00,Wunderground v.1.15,2013-02-13 12:58:00,
2013-02-13 06:04:00,21.0,10.0,30.52,SE,130,0.0,0.0,62,0.00,,,0.00,Wunderground v.1.15,2013-02-13 13:04:00,
2013-02-13 06:08:00,20.8,9.8,30.52,SE,130,0.0,0.0,62,0.00,,,0.00,Wunderground v.1.15,2013-02-13 13:08:00,
2013-02-13 06:10:00,20.6,9.6,30.52,SE,130,0.0,0.0,62,0.00,,,0.00,Wunderground v.1.15,2013-02-13 13:10:00,
2013-02-13 06:12:00,20.6,10.0,30.52,SE,130,0.0,0.0,63,0.00,,,0.00,Wunderground v.1.15,2013-02-13 13:12:00,
2013-02-13 06:14:00,20.5,9.9,30.52,SE,130,0.0,0.0,63,0.00,,,0.00,Wunderground v.1.15,2013-02-13 13:14:00,
2013-02-13 06:16:00,20.5,9.9,30.54,SE,130,0.0,0.0,63,0.00,,,0.00,Wunderground v.1.15,2013-02-13 13:16:00,
2013-02-13 06:18:00,20.5,9.9,30.54,SE,130,0.0,0.0,63,0.00,,,0.00,Wunderground v.1.15,2013-02-13 13:18:00,
2013-02-13 06:22:00,20.5,10.2,30.54,SE,130,0.0,0.0,64,0.00,,,0.00,Wunderground v.1.15,2013-02-13 13:22:00,
2013-02-13 06:26:00,20.3,10.1,30.54,SE,130,0.0,0.0,64,0.00,,,0.00,Wunderground v.1.15,2013-02-13 13:26:00,
2013-02-13 06:28:00,20.3,10.1,30.54,SE,130,0.0,0.0,64,0.00,,,0.00,Wunderground v.1.15,2013-02-13 13:28:00,
2013-02-13 06:30:00,20.3,10.1,30.54,SE,130,0.0,0.0,64,0.00,,,0.00,Wunderground v.1.15,2013-02-13 13:30:00,
2013-02-13 06:34:00,20.3,10.1,30.55,SE,130,0.0,0.0,64,0.00,,,0.00,Wunderground v.1.15,2013-02-13 13:34:00,
2013-02-13 06:36:00,20.3,10.4,30.55,SE,130,0.0,0.0,65,0.00,,,0.00,Wunderground v.1.15,2013-02-13 13:36:00,
2013-02-13 06:38:00,20.3,10.4,30.55,SE,130,0.0,0.0,65,0.00,,,0.00,Wunderground v.1.15,2013-02-13 13:38:00,
2013-02-13 06:40:00,20.3,10.4,30.55,SE,130,0.0,0.0,65,0.00,,,0.00,Wunderground v.1.15,2013-02-13 13:40:00,
2013-02-13 06:42:00,20.3,10.4,30.55,SE,130,0.0,0.0,65,0.00,,,0.00,Wunderground v.1.15,2013-02-13 13:42:00,
2013-02-13 06:44:00,20.3,10.4,30.55,SE,130,0.0,0.0,65,0.00,,,0.00,Wunderground v.1.15,2013-02-13 13:44:00,
2013-02-13 06:48:00,20.2,10.3,30.55,SE,130,0.0,0.0,65,0.00,,,0.00,Wunderground v.1.15,2013-02-13 13:48:00,
2013-02-13 06:54:00,20.2,10.3,30.55,SE,130,0.0,0.0,65,0.00,,,0.00,Wunderground v.1.15,2013-02-13 13:54:00,
2013-02-13 06:58:00,20.2,10.3,30.55,SE,130,0.0,0.0,65,0.00,,,0.00,Wunderground v.1.15,2013-02-13 13:58:00,
2013-02-13 07:00:00,20.2,10.3,30.55,SE,130,0.0,0.0,65,0.00,,,0.00,Wunderground v.1.15,2013-02-13 14:00:00,
2013-02-13 07:02:00,20.2,10.3,30.55,SE,130,0.0,0.0,65,0.00,,,0.00,Wunderground v.1.15,2013-02-13 14:02:00,
2013-02-13 07:06:00,20.2,10.3,30.55,SE,130,0.0,0.0,65,0.00,,,0.00,Wunderground v.1.15,2013-02-13 14:06:00,
2013-02-13 07:10:00,20.0,10.1,30.55,SE,130,0.0,0.0,65,0.00,,,0.00,Wunderground v.1.15,2013-02-13 14:10:00,
2013-02-13 07:16:00,20.0,10.5,30.58,SE,130,0.0,0.0,66,0.00,,,0.00,Wunderground v.1.15,2013-02-13 14:16:00,
2013-02-13 07:18:00,19.9,10.4,30.58,SE,130,0.0,1.0,66,0.00,,,0.00,Wunderground v.1.15,2013-02-13 14:18:00,
2013-02-13 07:22:00,19.9,10.4,30.58,SE,130,0.0,0.0,66,0.00,,,0.00,Wunderground v.1.15,2013-02-13 14:22:00,
2013-02-13 07:24:00,19.7,10.2,30.58,SE,130,0.0,0.0,66,0.00,,,0.00,Wunderground v.1.15,2013-02-13 14:24:00,
2013-02-13 07:28:00,19.7,9.8,30.58,SE,130,0.0,1.0,65,0.00,,,0.00,Wunderground v.1.15,2013-02-13 14:28:00,
2013-02-13 07:30:00,19.7,9.8,30.58,SE,130,0.0,0.0,65,0.00,,,0.00,Wunderground v.1.15,2013-02-13 14:30:00,
2013-02-13 07:32:00,19.5,9.6,30.58,SE,130,0.0,0.0,65,0.00,,,0.00,Wunderground v.1.15,2013-02-13 14:32:00,
2013-02-13 07:34:00,19.5,9.6,30.58,SE,130,0.0,0.0,65,0.00,,,0.00,Wunderground v.1.15,2013-02-13 14:34:00,
2013-02-13 07:36:00,19.5,9.6,30.58,SE,130,0.0,0.0,65,0.00,,,0.00,Wunderground v.1.15,2013-02-13 14:36:00,
2013-02-13 07:38:00,19.5,9.6,30.58,SE,130,0.0,0.0,65,0.00,,,0.00,Wunderground v.1.15,2013-02-13 14:38:00,
2013-02-13 07:40:00,19.5,9.3,30.58,SE,130,0.0,0.0,64,0.00,,,0.00,Wunderground v.1.15,2013-02-13 14:40:00,
2013-02-13 07:42:00,19.5,9.3,30.58,SE,130,0.0,0.0,64,0.00,,,0.00,Wunderground v.1.15,2013-02-13 14:42:00,
2013-02-13 07:46:00,19.5,9.3,30.58,SE,130,0.0,1.0,64,0.00,,,0.00,Wunderground v.1.15,2013-02-13 14:46:00,
2013-02-13 07:48:00,19.5,9.3,30.58,SE,130,0.0,1.0,64,0.00,,,0.00,Wunderground v.1.15,2013-02-13 14:48:00,
2013-02-13 07:50:00,19.5,9.3,30.58,SE,130,0.0,0.0,64,0.00,,,0.00,Wunderground v.1.15,2013-02-13 14:50:00,
2013-02-13 07:54:00,19.5,9.3,30.58,SE,130,0.0,0.0,64,0.00,,,0.00,Wunderground v.1.15,2013-02-13 14:54:00,
2013-02-13 07:56:00,19.5,9.3,30.58,SE,130,0.0,0.0,64,0.00,,,0.00,Wunderground v.1.15,2013-02-13 14:56:00,
2013-02-13 08:02:00,20.3,10.1,30.59,SE,130,0.0,0.0,64,0.00,,,0.00,Wunderground v.1.15,2013-02-13 15:02:00,
2013-02-13 08:04:00,21.0,10.4,30.59,SE,130,0.0,1.0,63,0.00,,,0.00,Wunderground v.1.15,2013-02-13 15:04:00,
2013-02-13 08:08:00,21.6,10.2,30.59,SE,130,0.0,2.0,61,0.00,,,0.00,Wunderground v.1.15,2013-02-13 15:08:00,
2013-02-13 08:10:00,21.8,10.4,30.59,SE,130,0.0,2.0,61,0.00,,,0.00,Wunderground v.1.15,2013-02-13 15:10:00,
2013-02-13 08:12:00,21.9,10.1,30.59,SE,130,0.0,2.0,60,0.00,,,0.00,Wunderground v.1.15,2013-02-13 15:12:00,
2013-02-13 08:14:00,22.1,10.3,30.59,SE,130,1.0,2.0,60,0.00,,,0.00,Wunderground v.1.15,2013-02-13 15:14:00,
2013-02-13 08:16:00,22.2,10.4,30.59,SE,130,1.0,2.0,60,0.00,,,0.00,Wunderground v.1.15,2013-02-13 15:16:00,
2013-02-13 08:18:00,22.2,10.4,30.59,SE,130,1.0,2.0,60,0.00,,,0.00,Wunderground v.1.15,2013-02-13 15:18:00,
2013-02-13 08:22:00,22.4,10.6,30.59,SE,130,1.0,1.0,60,0.00,,,0.00,Wunderground v.1.15,2013-02-13 15:22:00,
2013-02-13 08:24:00,22.7,10.5,30.59,SE,130,0.0,1.0,59,0.00,,,0.00,Wunderground v.1.15,2013-02-13 15:24:00,
2013-02-13 08:28:00,23.0,10.4,30.59,SE,130,1.0,1.0,58,0.00,,,0.00,Wunderground v.1.15,2013-02-13 15:28:00,
2013-02-13 08:30:00,23.2,10.6,30.59,SE,129,0.0,1.0,58,0.00,,,0.00,Wunderground v.1.15,2013-02-13 15:30:00,
2013-02-13 08:36:00,23.9,10.9,30.58,SE,130,0.0,2.0,57,0.00,,,0.00,Wunderground v.1.15,2013-02-13 15:36:00,
2013-02-13 08:38:00,23.8,10.8,30.58,SE,130,0.0,2.0,57,0.00,,,0.00,Wunderground v.1.15,2013-02-13 15:38:00,
2013-02-13 08:42:00,24.2,11.1,30.58,SE,130,0.0,0.0,57,0.00,,,0.00,Wunderground v.1.15,2013-02-13 15:42:00,
2013-02-13 08:48:00,25.1,10.8,30.57,SE,130,0.0,1.0,54,0.00,,,0.00,Wunderground v.1.15,2013-02-13 15:48:00,
2013-02-13 08:50:00,25.3,11.4,30.57,SE,130,0.0,1.0,55,0.00,,,0.00,Wunderground v.1.15,2013-02-13 15:50:00,
2013-02-13 08:52:00,25.6,11.2,30.57,SE,130,0.0,1.0,54,0.00,,,0.00,Wunderground v.1.15,2013-02-13 15:52:00,
2013-02-13 08:54:00,26.0,11.6,30.57,SE,130,0.0,1.0,54,0.00,,,0.00,Wunderground v.1.15,2013-02-13 15:54:00,
2013-02-13 08:56:00,26.4,11.1,30.57,SE,130,0.0,2.0,52,0.00,,,0.00,Wunderground v.1.15,2013-02-13 15:56:00,
2013-02-13 09:00:00,26.7,10.5,30.55,SE,130,1.0,1.0,50,0.00,,,0.00,Wunderground v.1.15,2013-02-13 16:00:00,
2013-02-13 09:02:00,26.7,10.5,30.55,SE,130,1.0,1.0,50,0.00,,,0.00,Wunderground v.1.15,2013-02-13 16:02:00,
2013-02-13 09:04:00,27.0,10.8,30.55,SE,130,1.0,1.0,50,0.00,,,0.00,Wunderground v.1.15,2013-02-13 16:04:00,
2013-02-13 09:06:00,27.2,10.5,30.55,SE,130,1.0,2.0,49,0.00,,,0.00,Wunderground v.1.15,2013-02-13 16:06:00,
2013-02-13 09:08:00,27.2,10.1,30.55,SE,130,1.0,2.0,48,0.00,,,0.00,Wunderground v.1.15,2013-02-13 16:08:00,
2013-02-13 09:10:00,27.3,10.2,30.55,SE,130,1.0,1.0,48,0.00,,,0.00,Wunderground v.1.15,2013-02-13 16:10:00,
2013-02-13 09:14:00,27.6,10.0,30.55,SE,130,1.0,1.0,47,0.00,,,0.00,Wunderground v.1.15,2013-02-13 16:14:00,
2013-02-13 09:16:00,27.8,10.2,30.57,SE,130,1.0,1.0,47,0.00,,,0.00,Wunderground v.1.15,2013-02-13 16:16:00,
2013-02-13 09:20:00,27.9,9.8,30.57,SE,130,0.0,0.0,46,0.00,,,0.00,Wunderground v.1.15,2013-02-13 16:20:00,
2013-02-13 09:22:00,27.9,9.8,30.57,SE,130,0.0,0.0,46,0.00,,,0.00,Wunderground v.1.15,2013-02-13 16:22:00,
2013-02-13 09:24:00,27.8,9.7,30.57,SE,130,0.0,0.0,46,0.00,,,0.00,Wunderground v.1.15,2013-02-13 16:24:00,
2013-02-13 09:28:00,27.6,9.5,30.57,SE,130,0.0,0.0,46,0.00,,,0.00,Wunderground v.1.15,2013-02-13 16:28:00,
2013-02-13 09:30:00,27.8,9.7,30.57,SE,130,0.0,1.0,46,0.00,,,0.00,Wunderground v.1.15,2013-02-13 16:30:00,
2013-02-13 09:32:00,27.8,9.7,30.57,SE,130,0.0,1.0,46,0.00,,,0.00,Wunderground v.1.15,2013-02-13 16:32:00,
2013-02-13 09:34:00,27.8,9.2,30.57,SE,130,0.0,1.0,45,0.00,,,0.00,Wunderground v.1.15,2013-02-13 16:34:00,
2013-02-13 09:36:00,27.9,9.3,30.57,SE,130,0.0,1.0,45,0.00,,,0.00,Wunderground v.1.15,2013-02-13 16:36:00,
2013-02-13 09:42:00,28.8,10.1,30.57,SE,130,0.0,0.0,45,0.00,,,0.00,Wunderground v.1.15,2013-02-13 16:42:00,
2013-02-13 09:44:00,29.0,9.3,30.57,SE,130,0.0,0.0,43,0.00,,,0.00,Wunderground v.1.15,2013-02-13 16:44:00,
2013-02-13 09:46:00,29.0,9.3,30.56,SE,130,0.0,0.0,43,0.00,,,0.00,Wunderground v.1.15,2013-02-13 16:46:00,
2013-02-13 09:48:00,29.0,9.3,30.56,SE,129,0.0,0.0,43,0.00,,,0.00,Wunderground v.1.15,2013-02-13 16:48:00,
2013-02-13 09:50:00,29.0,9.8,30.56,SE,130,0.0,0.0,44,0.00,,,0.00,Wunderground v.1.15,2013-02-13 16:50:00,
2013-02-13 09:52:00,29.4,10.1,30.56,SE,130,0.0,0.0,44,0.00,,,0.00,Wunderground v.1.15,2013-02-13 16:52:00,
2013-02-13 09:54:00,29.5,10.2,30.56,SE,130,0.0,0.0,44,0.00,,,0.00,Wunderground v.1.15,2013-02-13 16:54:00,
2013-02-13 09:58:00,30.1,9.7,30.56,SE,130,0.0,0.0,42,0.00,,,0.00,Wunderground v.1.15,2013-02-13 16:58:00,
2013-02-13 10:00:00,30.3,9.9,30.56,SE,130,0.0,1.0,42,0.00,,,0.00,Wunderground v.1.15,2013-02-13 17:00:00,
2013-02-13 10:02:00,30.1,9.7,30.56,SE,129,0.0,1.0,42,0.00,,,0.00,Wunderground v.1.15,2013-02-13 17:02:00,
2013-02-13 10:04:00,30.4,10.5,30.56,SE,130,0.0,1.0,43,0.00,,,0.00,Wunderground v.1.15,2013-02-13 17:04:00,
2013-02-13 10:06:00,30.4,9.5,30.56,ENE,60,0.0,1.0,41,0.00,,,0.00,Wunderground v.1.15,2013-02-13 17:06:00,
2013-02-13 10:08:00,30.4,9.5,30.56,ENE,60,1.0,1.0,41,0.00,,,0.00,Wunderground v.1.15,2013-02-13 17:08:00,
2013-02-13 10:10:00,30.3,9.9,30.56,ENE,61,0.0,0.0,42,0.00,,,0.00,Wunderground v.1.15,2013-02-13 17:10:00,
2013-02-13 10:12:00,30.4,9.5,30.56,ENE,60,0.0,0.0,41,0.00,,,0.00,Wunderground v.1.15,2013-02-13 17:12:00,
2013-02-13 10:14:00,30.4,9.5,30.56,ENE,61,0.0,2.0,41,0.00,,,0.00,Wunderground v.1.15,2013-02-13 17:14:00,
2013-02-13 10:16:00,30.4,9.5,30.56,ENE,63,0.0,2.0,41,0.00,,,0.00,Wunderground v.1.15,2013-02-13 17:16:00,
2013-02-13 10:18:00,30.3,9.4,30.56,ENE,63,0.0,2.0,41,0.00,,,0.00,Wunderground v.1.15,2013-02-13 17:18:00,
2013-02-13 10:22:00,30.3,8.8,30.56,NE,34,1.0,4.0,40,0.00,,,0.00,Wunderground v.1.15,2013-02-13 17:22:00,
2013-02-13 10:24:00,30.1,9.2,30.56,NNE,12,1.0,4.0,41,0.00,,,0.00,Wunderground v.1.15,2013-02-13 17:24:00,
2013-02-13 10:30:00,30.3,9.4,30.57,NNE,12,1.0,1.0,41,0.00,,,0.00,Wunderground v.1.15,2013-02-13 17:30:00,
2013-02-13 10:32:00,30.4,8.9,30.57,North,11,1.0,5.0,40,0.00,,,0.00,Wunderground v.1.15,2013-02-13 17:32:00,
2013-02-13 10:34:00,30.6,9.7,30.57,North,11,1.0,5.0,41,0.00,,,0.00,Wunderground v.1.15,2013-02-13 17:34:00,
2013-02-13 10:38:00,30.7,9.2,30.57,North,11,1.0,5.0,40,0.00,,,0.00,Wunderground v.1.15,2013-02-13 17:38:00,
2013-02-13 10:40:00,30.9,9.4,30.57,North,11,1.0,1.0,40,0.00,,,0.00,Wunderground v.1.15,2013-02-13 17:40:00,
2013-02-13 10:42:00,30.9,9.4,30.57,NW,317,1.0,1.0,40,0.00,,,0.00,Wunderground v.1.15,2013-02-13 17:42:00,
2013-02-13 10:46:00,30.9,9.4,30.57,NW,317,1.0,4.0,40,0.00,,,0.00,Wunderground v.1.15,2013-02-13 17:46:00,
2013-02-13 10:48:00,30.9,9.4,30.57,NW,314,1.0,4.0,40,0.00,,,0.00,Wunderground v.1.15,2013-02-13 17:48:00,
2013-02-13 10:50:00,30.7,9.2,30.57,NW,314,1.0,3.0,40,0.00,,,0.00,Wunderground v.1.15,2013-02-13 17:50:00,
2013-02-13 10:54:00,30.7,9.2,30.57,NW,313,1.0,3.0,40,0.00,,,0.00,Wunderground v.1.15,2013-02-13 17:54:00,
2013-02-13 10:56:00,30.7,9.2,30.57,NW,314,1.0,3.0,40,0.00,,,0.00,Wunderground v.1.15,2013-02-13 17:56:00,
2013-02-13 10:58:00,31.0,9.5,30.57,NW,314,0.0,3.0,40,0.00,,,0.00,Wunderground v.1.15,2013-02-13 17:58:00,
2013-02-13 11:04:00,31.8,8.4,30.56,NW,314,1.0,4.0,37,0.00,,,0.00,Wunderground v.1.15,2013-02-13 18:04:00,
2013-02-13 11:06:00,31.8,9.0,30.56,WSW,253,1.0,4.0,38,0.00,,,0.00,Wunderground v.1.15,2013-02-13 18:06:00,
2013-02-13 11:10:00,32.2,9.4,30.56,NW,317,1.0,3.0,38,0.00,,,0.00,Wunderground v.1.15,2013-02-13 18:10:00,
2013-02-13 11:12:00,32.2,8.2,30.56,NNW,330,1.0,3.0,36,0.00,,,0.00,Wunderground v.1.15,2013-02-13 18:12:00,
2013-02-13 11:14:00,32.1,8.1,30.56,NNW,330,1.0,3.0,36,0.00,,,0.00,Wunderground v.1.15,2013-02-13 18:14:00,
2013-02-13 11:20:00,31.9,8.5,30.54,NNW,348,1.0,1.0,37,0.00,,,0.00,Wunderground v.1.15,2013-02-13 18:20:00,
2013-02-13 11:26:00,32.5,8.5,30.54,NNW,346,1.0,3.0,36,0.00,,,0.00,Wunderground v.1.15,2013-02-13 18:26:00,
2013-02-13 11:28:00,32.8,8.7,30.54,NNW,346,0.0,3.0,36,0.00,,,0.00,Wunderground v.1.15,2013-02-13 18:28:00,
2013-02-13 11:30:00,33.1,9.0,30.52,NNW,346,0.0,0.0,36,0.00,,,0.00,Wunderground v.1.15,2013-02-13 18:30:00,
2013-02-13 11:34:00,33.2,9.1,30.52,NNW,338,0.0,1.0,36,0.00,,,0.00,Wunderground v.1.15,2013-02-13 18:34:00,
2013-02-13 11:36:00,33.4,9.9,30.52,NNW,337,0.0,1.0,37,0.00,,,0.00,Wunderground v.1.15,2013-02-13 18:36:00,
2013-02-13 11:38:00,33.5,10.6,30.52,NW,315,0.0,1.0,38,0.00,,,0.00,Wunderground v.1.15,2013-02-13 18:38:00,
2013-02-13 11:40:00,33.7,10.1,30.52,NW,313,1.0,1.0,37,0.00,,,0.00,Wunderground v.1.15,2013-02-13 18:40:00,
2013-02-13 11:44:00,33.7,10.1,30.52,NW,306,1.0,1.0,37,0.00,,,0.00,Wunderground v.1.15,2013-02-13 18:44:00,
2013-02-13 11:46:00,33.8,9.6,30.52,NW,306,1.0,1.0,36,0.00,,,0.00,Wunderground v.1.15,2013-02-13 18:46:00,
2013-02-13 11:48:00,34.0,9.8,30.52,NW,306,1.0,1.0,36,0.00,,,0.00,Wunderground v.1.15,2013-02-13 18:48:00,
2013-02-13 11:50:00,34.1,9.3,30.52,NW,309,1.0,3.0,35,0.00,,,0.00,Wunderground v.1.15,2013-02-13 18:50:00,
2013-02-13 11:54:00,34.3,9.4,30.52,NNW,335,1.0,4.0,35,0.00,,,0.00,Wunderground v.1.15,2013-02-13 18:54:00,
2013-02-13 11:56:00,34.0,9.8,30.52,NNE,15,1.0,4.0,36,0.00,,,0.00,Wunderground v.1.15,2013-02-13 18:56:00,
2013-02-13 12:00:00,34.1,9.9,30.52,NW,312,1.0,1.0,36,0.00,,,0.00,Wunderground v.1.15,2013-02-13 19:00:00,
2013-02-13 12:04:00,34.3,10.1,30.51,NNW,346,2.0,2.0,36,0.00,,,0.00,Wunderground v.1.15,2013-02-13 19:04:00,
2013-02-13 12:06:00,34.4,10.2,30.51,NNW,345,1.0,2.0,36,0.00,,,0.00,Wunderground v.1.15,2013-02-13 19:06:00,
2013-02-13 12:10:00,34.7,9.8,30.51,NNW,348,1.0,1.0,35,0.00,,,0.00,Wunderground v.1.15,2013-02-13 19:10:00,
2013-02-13 12:12:00,34.7,10.4,30.51,NNW,348,1.0,2.0,36,0.00,,,0.00,Wunderground v.1.15,2013-02-13 19:12:00,
2013-02-13 12:14:00,34.7,9.8,30.51,NNE,13,1.0,2.0,35,0.00,,,0.00,Wunderground v.1.15,2013-02-13 19:14:00,
2013-02-13 12:18:00,35.0,10.1,30.49,NW,313,2.0,3.0,35,0.00,,,0.00,Wunderground v.1.15,2013-02-13 19:18:00,
2013-02-13 12:20:00,35.2,10.2,30.49,NW,313,1.0,2.0,35,0.00,,,0.00,Wunderground v.1.15,2013-02-13 19:20:00,
2013-02-13 12:22:00,35.2,10.9,30.49,NW,321,2.0,2.0,36,0.00,,,0.00,Wunderground v.1.15,2013-02-13 19:22:00,
2013-02-13 12:24:00,35.3,10.3,30.49,North,9,2.0,3.0,35,0.00,,,0.00,Wunderground v.1.15,2013-02-13 19:24:00,
2013-02-13 12:28:00,35.6,11.9,30.49,NNW,344,2.0,3.0,37,0.00,,,0.00,Wunderground v.1.15,2013-02-13 19:28:00,
2013-02-13 12:30:00,35.8,10.8,30.49,NW,316,2.0,3.0,35,0.00,,,0.00,Wunderground v.1.15,2013-02-13 19:30:00,
2013-02-13 12:32:00,35.8,10.8,30.47,NW,325,2.0,3.0,35,0.00,,,0.00,Wunderground v.1.15,2013-02-13 19:32:00,
2013-02-13 12:36:00,36.0,11.6,30.47,NE,39,1.0,3.0,36,0.00,,,0.00,Wunderground v.1.15,2013-02-13 19:36:00,
2013-02-13 12:38:00,35.9,11.5,30.47,NNW,342,2.0,3.0,36,0.00,,,0.00,Wunderground v.1.15,2013-02-13 19:38:00,
2013-02-13 12:42:00,36.0,11.6,30.47,North,5,1.0,1.0,36,0.00,,,0.00,Wunderground v.1.15,2013-02-13 19:42:00,
2013-02-13 12:44:00,36.3,11.2,30.47,NNW,344,1.0,1.0,35,0.00,,,0.00,Wunderground v.1.15,2013-02-13 19:44:00,
2013-02-13 12:46:00,36.8,11.7,30.44,NNW,344,1.0,1.0,35,0.00,,,0.00,Wunderground v.1.15,2013-02-13 19:46:00,
2013-02-13 12:50:00,37.6,11.7,30.44,NW,317,0.0,0.0,34,0.00,,,0.00,Wunderground v.1.15,2013-02-13 19:50:00,
2013-02-13 12:52:00,37.9,12.6,30.44,WSW,243,1.0,2.0,35,0.00,,,0.00,Wunderground v.1.15,2013-02-13 19:52:00,
2013-02-13 12:56:00,38.3,11.7,30.44,NNW,330,1.0,2.0,33,0.00,,,0.00,Wunderground v.1.15,2013-02-13 19:56:00,
2013-02-13 12:58:00,37.9,11.3,30.44,NNW,341,1.0,2.0,33,0.00,,,0.00,Wunderground v.1.15,2013-02-13 19:58:00,
2013-02-13 13:02:00,37.5,11.6,30.42,NNE,19,1.0,1.0,34,0.00,,,0.00,Wunderground v.1.15,2013-02-13 20:02:00,
2013-02-13 13:04:00,37.6,11.7,30.42,NNE,19,1.0,1.0,34,0.00,,,0.00,Wunderground v.1.15,2013-02-13 20:04:00,
2013-02-13 13:06:00,38.0,12.1,30.42,SW,219,1.0,3.0,34,0.00,,,0.00,Wunderground v.1.15,2013-02-13 20:06:00,
2013-02-13 13:10:00,38.0,13.4,30.42,SW,227,2.0,2.0,36,0.00,,,0.00,Wunderground v.1.15,2013-02-13 20:10:00,
2013-02-13 13:12:00,38.5,13.2,30.42,SW,227,1.0,2.0,35,0.00,,,0.00,Wunderground v.1.15,2013-02-13 20:12:00,
2013-02-13 13:14:00,38.8,11.4,30.42,SW,227,1.0,2.0,32,0.00,,,0.00,Wunderground v.1.15,2013-02-13 20:14:00,
2013-02-13 13:16:00,38.9,12.2,30.41,SW,227,1.0,2.0,33,0.00,,,0.00,Wunderground v.1.15,2013-02-13 20:16:00,
2013-02-13 13:20:00,39.2,12.5,30.41,SW,227,0.0,0.0,33,0.00,,,0.00,Wunderground v.1.15,2013-02-13 20:20:00,
2013-02-13 13:22:00,39.5,12.7,30.41,SW,227,0.0,4.0,33,0.00,,,0.00,Wunderground v.1.15,2013-02-13 20:22:00,
2013-02-13 13:24:00,39.5,12.0,30.41,SW,227,1.0,4.0,32,0.00,,,0.00,Wunderground v.1.15,2013-02-13 20:24:00,
2013-02-13 13:26:00,39.3,12.6,30.41,SW,227,1.0,4.0,33,0.00,,,0.00,Wunderground v.1.15,2013-02-13 20:26:00,
2013-02-13 13:30:00,39.5,11.3,30.40,SW,227,1.0,2.0,31,0.00,,,0.00,Wunderground v.1.15,2013-02-13 20:30:00,
2013-02-13 13:34:00,39.1,11.7,30.40,SW,227,0.0,2.0,32,0.00,,,0.00,Wunderground v.1.15,2013-02-13 20:34:00,
2013-02-13 13:36:00,39.2,11.8,30.40,SW,227,0.0,2.0,32,0.00,,,0.00,Wunderground v.1.15,2013-02-13 20:36:00,
2013-02-13 13:38:00,39.3,11.1,30.40,SW,227,0.0,2.0,31,0.00,,,0.00,Wunderground v.1.15,2013-02-13 20:38:00,
2013-02-13 13:42:00,39.6,11.4,30.40,South,183,1.0,6.0,31,0.00,,,0.00,Wunderground v.1.15,2013-02-13 20:42:00,
2013-02-13 13:44:00,39.8,12.3,30.40,SSE,165,1.0,6.0,32,0.00,,,0.00,Wunderground v.1.15,2013-02-13 20:44:00,
2013-02-13 13:46:00,39.9,12.4,30.39,SSE,165,2.0,6.0,32,0.00,,,0.00,Wunderground v.1.15,2013-02-13 20:46:00,
2013-02-13 13:48:00,39.9,11.7,30.39,SSE,165,2.0,6.0,31,0.00,,,0.00,Wunderground v.1.15,2013-02-13 20:48:00,
2013-02-13 13:52:00,40.1,11.8,30.39,SSE,165,1.0,2.0,31,0.00,,,0.00,Wunderground v.1.15,2013-02-13 20:52:00,
2013-02-13 13:56:00,39.8,12.3,30.39,SSE,165,1.0,2.0,32,0.00,,,0.00,Wunderground v.1.15,2013-02-13 20:56:00,
2013-02-13 14:02:00,39.9,11.7,30.38,SSE,151,1.0,3.0,31,0.00,,,0.00,Wunderground v.1.15,2013-02-13 21:02:00,
2013-02-13 14:04:00,39.6,12.1,30.38,SSE,151,1.0,3.0,32,0.00,,,0.00,Wunderground v.1.15,2013-02-13 21:04:00,
2013-02-13 14:06:00,39.8,12.3,30.38,NE,38,1.0,3.0,32,0.00,,,0.00,Wunderground v.1.15,2013-02-13 21:06:00,
2013-02-13 14:08:00,40.1,11.8,30.38,WSW,240,1.0,3.0,31,0.00,,,0.00,Wunderground v.1.15,2013-02-13 21:08:00,
2013-02-13 14:12:00,40.3,12.0,30.38,WSW,240,1.0,1.0,31,0.00,,,0.00,Wunderground v.1.15,2013-02-13 21:12:00,
2013-02-13 14:18:00,40.6,12.3,30.38,SW,224,1.0,2.0,31,0.00,,,0.00,Wunderground v.1.15,2013-02-13 21:18:00,
2013-02-13 14:20:00,40.8,12.5,30.38,SW,223,0.0,2.0,31,0.00,,,0.00,Wunderground v.1.15,2013-02-13 21:20:00,
2013-02-13 14:22:00,40.5,11.4,30.38,SW,220,0.0,1.0,30,0.00,,,0.00,Wunderground v.1.15,2013-02-13 21:22:00,
2013-02-13 14:24:00,40.2,11.9,30.38,SSE,151,1.0,1.0,31,0.00,,,0.00,Wunderground v.1.15,2013-02-13 21:24:00,
2013-02-13 14:28:00,39.8,12.3,30.38,SE,130,1.0,1.0,32,0.00,,,0.00,Wunderground v.1.15,2013-02-13 21:28:00,
2013-02-13 14:30:00,39.8,11.6,30.38,ESE,112,1.0,4.0,31,0.00,,,0.00,Wunderground v.1.15,2013-02-13 21:30:00,
2013-02-13 14:32:00,39.6,11.4,30.38,SE,129,1.0,1.0,31,0.00,,,0.00,Wunderground v.1.15,2013-02-13 21:32:00,
2013-02-13 14:36:00,39.2,11.8,30.38,ESE,118,1.0,3.0,32,0.00,,,0.00,Wunderground v.1.15,2013-02-13 21:36:00,
2013-02-13 14:38:00,39.5,12.0,30.38,ESE,117,1.0,3.0,32,0.00,,,0.00,Wunderground v.1.15,2013-02-13 21:38:00,
2013-02-13 14:40:00,39.9,12.4,30.38,ESE,117,1.0,3.0,32,0.00,,,0.00,Wunderground v.1.15,2013-02-13 21:40:00,
2013-02-13 14:42:00,40.5,12.2,30.38,ESE,117,1.0,1.0,31,0.00,,,0.00,Wunderground v.1.15,2013-02-13 21:42:00,
2013-02-13 14:46:00,41.5,11.6,30.37,South,171,0.0,1.0,29,0.00,,,0.00,Wunderground v.1.15,2013-02-13 21:46:00,
2013-02-13 14:48:00,41.9,11.1,30.37,WNW,284,0.0,1.0,28,0.00,,,0.00,Wunderground v.1.15,2013-02-13 21:48:00,
2013-02-13 14:50:00,42.1,11.3,30.37,WNW,284,1.0,1.0,28,0.00,,,0.00,Wunderground v.1.15,2013-02-13 21:50:00,
2013-02-13 14:52:00,42.3,12.3,30.37,West,273,1.0,1.0,29,0.00,,,0.00,Wunderground v.1.15,2013-02-13 21:52:00,
2013-02-13 14:54:00,42.3,10.6,30.37,West,273,1.0,1.0,27,0.00,,,0.00,Wunderground v.1.15,2013-02-13 21:54:00,
2013-02-13 14:56:00,42.5,10.8,30.37,West,273,1.0,1.0,27,0.00,,,0.00,Wunderground v.1.15,2013-02-13 21:56:00,
2013-02-13 14:58:00,42.3,10.6,30.37,West,273,1.0,4.0,27,0.00,,,0.00,Wunderground v.1.15,2013-02-13 21:58:00,
2013-02-13 15:02:00,41.5,10.8,30.36,West,275,1.0,1.0,28,0.00,,,0.00,Wunderground v.1.15,2013-02-13 22:02:00,
2013-02-13 15:04:00,41.3,11.4,30.36,West,275,1.0,1.0,29,0.00,,,0.00,Wunderground v.1.15,2013-02-13 22:04:00,
2013-02-13 15:06:00,41.3,11.4,30.36,West,275,1.0,3.0,29,0.00,,,0.00,Wunderground v.1.15,2013-02-13 22:06:00,
2013-02-13 15:10:00,41.3,11.4,30.36,West,275,1.0,3.0,29,0.00,,,0.00,Wunderground v.1.15,2013-02-13 22:10:00,
2013-02-13 15:12:00,41.2,11.3,30.36,West,275,1.0,3.0,29,0.00,,,0.00,Wunderground v.1.15,2013-02-13 22:12:00,
2013-02-13 15:18:00,40.9,11.8,30.36,North,5,1.0,3.0,30,0.00,,,0.00,Wunderground v.1.15,2013-02-13 22:18:00,
2013-02-13 15:20:00,41.1,12.0,30.36,NNE,25,1.0,1.0,30,0.00,,,0.00,Wunderground v.1.15,2013-02-13 22:20:00,
2013-02-13 15:24:00,41.2,12.1,30.36,NNW,327,1.0,1.0,30,0.00,,,0.00,Wunderground v.1.15,2013-02-13 22:24:00,
2013-02-13 15:28:00,41.1,12.0,30.36,ENE,63,1.0,1.0,30,0.00,,,0.00,Wunderground v.1.15,2013-02-13 22:28:00,
2013-02-13 15:30:00,40.8,11.7,30.36,ENE,63,1.0,1.0,30,0.00,,,0.00,Wunderground v.1.15,2013-02-13 22:30:00,
2013-02-13 15:36:00,40.8,12.5,30.36,East,83,1.0,2.0,31,0.00,,,0.00,Wunderground v.1.15,2013-02-13 22:36:00,
2013-02-13 15:38:00,40.9,12.5,30.36,East,83,1.0,2.0,31,0.00,,,0.00,Wunderground v.1.15,2013-02-13 22:38:00,
2013-02-13 15:42:00,40.8,11.7,30.36,NNE,32,1.0,5.0,30,0.00,,,0.00,Wunderground v.1.15,2013-02-13 22:42:00,
2013-02-13 15:44:00,40.5,12.2,30.36,NE,34,1.0,5.0,31,0.00,,,0.00,Wunderground v.1.15,2013-02-13 22:44:00,
2013-02-13 15:48:00,40.3,12.0,30.37,NNE,33,1.0,5.0,31,0.00,,,0.00,Wunderground v.1.15,2013-02-13 22:48:00,
2013-02-13 15:50:00,40.3,12.0,30.37,NNE,32,1.0,1.0,31,0.00,,,0.00,Wunderground v.1.15,2013-02-13 22:50:00,
2013-02-13 15:52:00,40.3,12.0,30.37,NNE,32,1.0,1.0,31,0.00,,,0.00,Wunderground v.1.15,2013-02-13 22:52:00,
2013-02-13 15:54:00,40.5,12.2,30.37,NNE,32,1.0,1.0,31,0.00,,,0.00,Wunderground v.1.15,2013-02-13 22:54:00,
2013-02-13 15:56:00,40.6,12.3,30.37,NNE,31,1.0,1.0,31,0.00,,,0.00,Wunderground v.1.15,2013-02-13 22:56:00,
2013-02-13 15:58:00,40.8,11.7,30.37,NNE,31,0.0,1.0,30,0.00,,,0.00,Wunderground v.1.15,2013-02-13 22:58:00,
2013-02-13 16:00:00,40.9,11.8,30.37,NW,308,0.0,2.0,30,0.00,,,0.00,Wunderground v.1.15,2013-02-13 23:00:00,
2013-02-13 16:02:00,40.8,11.7,30.36,NW,308,0.0,2.0,30,0.00,,,0.00,Wunderground v.1.15,2013-02-13 23:02:00,
2013-02-13 16:04:00,40.8,12.5,30.36,NW,308,1.0,2.0,31,0.00,,,0.00,Wunderground v.1.15,2013-02-13 23:04:00,
2013-02-13 16:08:00,40.5,12.2,30.36,NW,308,1.0,2.0,31,0.00,,,0.00,Wunderground v.1.15,2013-02-13 23:08:00,
2013-02-13 16:10:00,40.5,12.2,30.36,NW,315,1.0,1.0,31,0.00,,,0.00,Wunderground v.1.15,2013-02-13 23:10:00,
2013-02-13 16:12:00,40.3,12.0,30.36,NW,313,1.0,3.0,31,0.00,,,0.00,Wunderground v.1.15,2013-02-13 23:12:00,
2013-02-13 16:16:00,40.1,12.6,30.37,NW,313,1.0,3.0,32,0.00,,,0.00,Wunderground v.1.15,2013-02-13 23:16:00,
2013-02-13 16:18:00,40.1,11.8,30.37,NW,313,1.0,3.0,31,0.00,,,0.00,Wunderground v.1.15,2013-02-13 23:18:00,
2013-02-13 16:20:00,40.1,12.6,30.37,NW,313,0.0,0.0,32,0.00,,,0.00,Wunderground v.1.15,2013-02-13 23:20:00,
2013-02-13 16:26:00,40.1,12.6,30.37,NW,314,1.0,3.0,32,0.00,,,0.00,Wunderground v.1.15,2013-02-13 23:26:00,
2013-02-13 16:28:00,40.1,12.6,30.37,NW,314,1.0,3.0,32,0.00,,,0.00,Wunderground v.1.15,2013-02-13 23:28:00,
2013-02-13 16:30:00,39.9,12.4,30.37,NW,314,1.0,2.0,32,0.00,,,0.00,Wunderground v.1.15,2013-02-13 23:30:00,
2013-02-13 16:32:00,39.8,12.3,30.37,NW,314,1.0,2.0,32,0.00,,,0.00,Wunderground v.1.15,2013-02-13 23:32:00,
2013-02-13 16:34:00,39.8,12.3,30.37,NW,314,1.0,2.0,32,0.00,,,0.00,Wunderground v.1.15,2013-02-13 23:34:00,
2013-02-13 16:36:00,39.6,12.1,30.37,NW,315,1.0,2.0,32,0.00,,,0.00,Wunderground v.1.15,2013-02-13 23:36:00,
2013-02-13 16:38:00,39.5,12.7,30.37,NW,315,1.0,2.0,33,0.00,,,0.00,Wunderground v.1.15,2013-02-13 23:38:00,
2013-02-13 16:42:00,39.3,12.6,30.37,NNE,12,1.0,2.0,33,0.00,,,0.00,Wunderground v.1.15,2013-02-13 23:42:00,
2013-02-13 16:48:00,39.1,12.4,30.37,NNW,335,1.0,4.0,33,0.00,,,0.00,Wunderground v.1.15,2013-02-13 23:48:00,
2013-02-13 16:52:00,38.9,12.9,30.37,NNW,331,1.0,1.0,34,0.00,,,0.00,Wunderground v.1.15,2013-02-13 23:52:00,
2013-02-13 16:54:00,38.8,12.8,30.37,NNW,338,1.0,2.0,34,0.00,,,0.00,Wunderground v.1.15,2013-02-13 23:54:00,
2013-02-13 16:56:00,38.6,12.6,30.37,NNW,340,1.0,2.0,34,0.00,,,0.00,Wunderground v.1.15,2013-02-13 23:56:00,
2013-02-13 17:00:00,38.5,13.2,30.37,North,9,1.0,3.0,35,0.00,,,0.00,Wunderground v.1.15,2013-02-14 00:00:00,
2013-02-13 17:06:00,38.3,12.3,30.37,North,350,1.0,3.0,34,0.00,,,0.00,Wunderground v.1.15,2013-02-14 00:06:00,
2013-02-13 17:08:00,38.3,12.3,30.37,North,355,1.0,3.0,34,0.00,,,0.00,Wunderground v.1.15,2013-02-14 00:08:00,
2013-02-13 17:10:00,38.3,13.0,30.37,North,355,1.0,1.0,35,0.00,,,0.00,Wunderground v.1.15,2013-02-14 00:10:00,
2013-02-13 17:12:00,38.2,12.9,30.37,North,355,1.0,1.0,35,0.00,,,0.00,Wunderground v.1.15,2013-02-14 00:12:00,
2013-02-13 17:14:00,38.2,12.9,30.37,North,355,1.0,1.0,35,0.00,,,0.00,Wunderground v.1.15,2013-02-14 00:14:00,
2013-02-13 17:16:00,38.2,15.4,30.38,North,350,1.0,2.0,39,0.00,,,0.00,Wunderground v.1.15,2013-02-14 00:16:00,
2013-02-13 17:18:00,38.0,12.7,30.38,North,350,0.0,3.0,35,0.00,,,0.00,Wunderground v.1.15,2013-02-14 00:18:00,
2013-02-13 17:20:00,38.0,12.7,30.38,North,350,0.0,0.0,35,0.00,,,0.00,Wunderground v.1.15,2013-02-14 00:20:00,
2013-02-13 17:22:00,37.9,13.3,30.38,North,350,0.0,0.0,36,0.00,,,0.00,Wunderground v.1.15,2013-02-14 00:22:00,
2013-02-13 17:24:00,37.8,12.6,30.38,NW,316,1.0,1.0,35,0.00,,,0.00,Wunderground v.1.15,2013-02-14 00:24:00,
2013-02-13 17:26:00,37.8,12.6,30.38,NW,320,1.0,3.0,35,0.00,,,0.00,Wunderground v.1.15,2013-02-14 00:26:00,
2013-02-13 17:28:00,37.6,13.0,30.38,NW,323,1.0,3.0,36,0.00,,,0.00,Wunderground v.1.15,2013-02-14 00:28:00,
2013-02-13 17:32:00,37.3,12.7,30.38,North,32767,2.0,4.0,36,0.00,,,0.00,Wunderground v.1.15,2013-02-14 00:32:00,
2013-02-13 17:34:00,37.2,13.3,30.38,North,355,1.0,4.0,37,0.00,,,0.00,Wunderground v.1.15,2013-02-14 00:34:00,
2013-02-13 17:36:00,37.2,12.7,30.38,NNW,344,1.0,4.0,36,0.00,,,0.00,Wunderground v.1.15,2013-02-14 00:36:00,
2013-02-13 17:40:00,36.9,13.0,30.38,NNW,330,1.0,1.0,37,0.00,,,0.00,Wunderground v.1.15,2013-02-14 00:40:00,
2013-02-13 17:42:00,36.8,12.9,30.38,NNW,330,1.0,1.0,37,0.00,,,0.00,Wunderground v.1.15,2013-02-14 00:42:00,
2013-02-13 17:44:00,36.8,13.5,30.38,NNW,331,1.0,4.0,38,0.00,,,0.00,Wunderground v.1.15,2013-02-14 00:44:00,
2013-02-13 17:48:00,36.5,13.3,30.38,NNW,342,1.0,4.0,38,0.00,,,0.00,Wunderground v.1.15,2013-02-14 00:48:00,
2013-02-13 17:50:00,36.3,13.1,30.38,NNW,342,1.0,3.0,38,0.00,,,0.00,Wunderground v.1.15,2013-02-14 00:50:00,
2013-02-13 17:52:00,36.2,13.0,30.38,NNW,342,1.0,3.0,38,0.00,,,0.00,Wunderground v.1.15,2013-02-14 00:52:00,
2013-02-13 17:54:00,36.0,14.0,30.38,NW,323,2.0,3.0,40,0.00,,,0.00,Wunderground v.1.15,2013-02-14 00:54:00,
2013-02-13 17:58:00,35.5,14.6,30.38,NNW,336,2.0,3.0,42,0.00,,,0.00,Wunderground v.1.15,2013-02-14 00:58:00,
2013-02-13 18:00:00,35.0,14.7,30.38,NNW,333,3.0,3.0,43,0.00,,,0.00,Wunderground v.1.15,2013-02-14 01:00:00,
2013-02-13 18:06:00,34.4,15.2,30.40,NW,321,2.0,3.0,45,0.00,,,0.00,Wunderground v.1.15,2013-02-14 01:06:00,
2013-02-13 18:08:00,34.1,14.9,30.40,NW,309,2.0,3.0,45,0.00,,,0.00,Wunderground v.1.15,2013-02-14 01:08:00,
2013-02-13 18:12:00,33.8,15.2,30.40,NW,309,2.0,3.0,46,0.00,,,0.00,Wunderground v.1.15,2013-02-14 01:12:00,
2013-02-13 18:14:00,33.7,15.1,30.40,NW,306,2.0,3.0,46,0.00,,,0.00,Wunderground v.1.15,2013-02-14 01:14:00,
2013-02-13 18:20:00,33.2,15.1,30.42,NW,306,1.0,2.0,47,0.00,,,0.00,Wunderground v.1.15,2013-02-14 01:20:00,
2013-02-13 18:22:00,33.1,15.5,30.42,North,355,1.0,2.0,48,0.00,,,0.00,Wunderground v.1.15,2013-02-14 01:22:00,
2013-02-13 18:26:00,32.9,15.8,30.42,WNW,303,2.0,6.0,49,0.00,,,0.00,Wunderground v.1.15,2013-02-14 01:26:00,
2013-02-13 18:28:00,32.8,15.7,30.42,WNW,303,2.0,6.0,49,0.00,,,0.00,Wunderground v.1.15,2013-02-14 01:28:00,
2013-02-13 18:32:00,32.7,15.6,30.44,NW,304,1.0,1.0,49,0.00,,,0.00,Wunderground v.1.15,2013-02-14 01:32:00,
2013-02-13 18:36:00,32.4,15.8,30.44,WNW,303,0.0,1.0,50,0.00,,,0.00,Wunderground v.1.15,2013-02-14 01:36:00,
2013-02-13 18:38:00,32.4,15.8,30.44,WNW,303,0.0,1.0,50,0.00,,,0.00,Wunderground v.1.15,2013-02-14 01:38:00,
2013-02-13 18:42:00,32.1,15.5,30.44,WNW,303,0.0,0.0,50,0.00,,,0.00,Wunderground v.1.15,2013-02-14 01:42:00,
2013-02-13 18:44:00,31.9,15.8,30.44,WNW,303,0.0,0.0,51,0.00,,,0.00,Wunderground v.1.15,2013-02-14 01:44:00,
2013-02-13 18:48:00,31.8,15.7,30.44,WNW,303,0.0,0.0,51,0.00,,,0.00,Wunderground v.1.15,2013-02-14 01:48:00,
2013-02-13 18:50:00,31.6,15.5,30.44,NW,304,0.0,0.0,51,0.00,,,0.00,Wunderground v.1.15,2013-02-14 01:50:00,
2013-02-13 18:52:00,31.5,15.4,30.44,NW,304,0.0,0.0,51,0.00,,,0.00,Wunderground v.1.15,2013-02-14 01:52:00,
2013-02-13 18:54:00,31.5,15.4,30.44,WNW,303,0.0,0.0,51,0.00,,,0.00,Wunderground v.1.15,2013-02-14 01:54:00,
2013-02-13 19:00:00,31.2,15.6,30.44,WNW,303,0.0,0.0,52,0.00,,,0.00,Wunderground v.1.15,2013-02-14 02:00:00,
2013-02-13 19:02:00,31.0,15.4,30.46,WNW,303,0.0,0.0,52,0.00,,,0.00,Wunderground v.1.15,2013-02-14 02:02:00,
2013-02-13 19:06:00,30.7,15.1,30.46,WNW,303,0.0,0.0,52,0.00,,,0.00,Wunderground v.1.15,2013-02-14 02:06:00,
2013-02-13 19:08:00,30.6,15.5,30.46,WNW,303,0.0,0.0,53,0.00,,,0.00,Wunderground v.1.15,2013-02-14 02:08:00,
2013-02-13 19:12:00,30.4,15.3,30.46,WNW,303,0.0,0.0,53,0.00,,,0.00,Wunderground v.1.15,2013-02-14 02:12:00,
2013-02-13 19:14:00,30.3,15.6,30.46,WNW,303,0.0,0.0,54,0.00,,,0.00,Wunderground v.1.15,2013-02-14 02:14:00,
2013-02-13 19:18:00,30.0,15.3,30.46,WNW,303,0.0,0.0,54,0.00,,,0.00,Wunderground v.1.15,2013-02-14 02:18:00,
2013-02-13 19:20:00,30.0,15.3,30.46,WNW,303,0.0,0.0,54,0.00,,,0.00,Wunderground v.1.15,2013-02-14 02:20:00,
2013-02-13 19:24:00,30.0,15.3,30.46,WNW,303,0.0,0.0,54,0.00,,,0.00,Wunderground v.1.15,2013-02-14 02:24:00,
2013-02-13 19:28:00,29.8,15.6,30.46,WNW,303,0.0,0.0,55,0.00,,,0.00,Wunderground v.1.15,2013-02-14 02:28:00,
2013-02-13 19:31:00,29.7,15.5,30.46,WNW,303,0.0,0.0,55,0.00,,,0.00,Wunderground v.1.15,2013-02-14 02:31:00,
2013-02-13 19:32:00,29.7,15.5,30.46,WNW,303,0.0,0.0,55,0.00,,,0.00,Wunderground v.1.15,2013-02-14 02:32:00,
2013-02-13 19:34:00,29.5,15.7,30.46,WNW,303,0.0,0.0,56,0.00,,,0.00,Wunderground v.1.15,2013-02-14 02:34:00,
2013-02-13 19:36:00,29.5,16.1,30.46,WNW,303,0.0,0.0,57,0.00,,,0.00,Wunderground v.1.15,2013-02-14 02:36:00,
2013-02-13 19:42:00,29.3,15.9,30.46,WNW,303,0.0,0.0,57,0.00,,,0.00,Wunderground v.1.15,2013-02-14 02:42:00,
2013-02-13 19:44:00,29.3,16.3,30.46,WNW,303,0.0,0.0,58,0.00,,,0.00,Wunderground v.1.15,2013-02-14 02:44:00,
2013-02-13 19:48:00,29.0,16.1,30.48,WNW,303,0.0,0.0,58,0.00,,,0.00,Wunderground v.1.15,2013-02-14 02:48:00,
2013-02-13 19:50:00,29.0,16.1,30.48,WNW,303,0.0,0.0,58,0.00,,,0.00,Wunderground v.1.15,2013-02-14 02:50:00,
2013-02-13 19:52:00,28.8,16.3,30.48,WNW,303,0.0,0.0,59,0.00,,,0.00,Wunderground v.1.15,2013-02-14 02:52:00,
2013-02-13 19:54:00,28.7,16.2,30.48,WNW,303,0.0,0.0,59,0.00,,,0.00,Wunderground v.1.15,2013-02-14 02:54:00,
2013-02-13 19:56:00,28.5,16.0,30.48,WNW,303,0.0,0.0,59,0.00,,,0.00,Wunderground v.1.15,2013-02-14 02:56:00,
2013-02-13 20:02:00,28.1,16.0,30.48,WNW,303,0.0,0.0,60,0.00,,,0.00,Wunderground v.1.15,2013-02-14 03:02:00,
2013-02-13 20:04:00,28.1,16.4,30.48,WNW,303,0.0,0.0,61,0.00,,,0.00,Wunderground v.1.15,2013-02-14 03:04:00,
2013-02-13 20:06:00,27.9,16.2,30.48,NW,304,0.0,0.0,61,0.00,,,0.00,Wunderground v.1.15,2013-02-14 03:06:00,
2013-02-13 20:10:00,27.9,16.6,30.48,WNW,303,0.0,0.0,62,0.00,,,0.00,Wunderground v.1.15,2013-02-14 03:10:00,
2013-02-13 20:12:00,27.9,16.6,30.48,WNW,303,0.0,0.0,62,0.00,,,0.00,Wunderground v.1.15,2013-02-14 03:12:00,
2013-02-13 20:14:00,27.9,16.6,30.48,WNW,303,0.0,0.0,62,0.00,,,0.00,Wunderground v.1.15,2013-02-14 03:14:00,
2013-02-13 20:20:00,27.6,16.3,30.44,WNW,303,0.0,0.0,62,0.00,,,0.00,Wunderground v.1.15,2013-02-14 03:20:00,
2013-02-13 20:22:00,27.5,16.2,30.44,WNW,303,0.0,0.0,62,0.00,,,0.00,Wunderground v.1.15,2013-02-14 03:22:00,
2013-02-13 20:26:00,27.3,16.4,30.44,WNW,303,0.0,0.0,63,0.00,,,0.00,Wunderground v.1.15,2013-02-14 03:26:00,
2013-02-13 20:28:00,27.3,16.7,30.44,WNW,303,0.0,0.0,64,0.00,,,0.00,Wunderground v.1.15,2013-02-14 03:28:00,
2013-02-13 20:32:00,27.2,16.6,30.45,WNW,303,0.0,0.0,64,0.00,,,0.00,Wunderground v.1.15,2013-02-14 03:32:00,
2013-02-13 20:34:00,27.0,16.4,30.45,WNW,303,0.0,0.0,64,0.00,,,0.00,Wunderground v.1.15,2013-02-14 03:34:00,
2013-02-13 20:36:00,26.9,16.3,30.45,WNW,303,0.0,0.0,64,0.00,,,0.00,Wunderground v.1.15,2013-02-14 03:36:00,
2013-02-13 20:38:00,26.7,16.5,30.45,WNW,303,0.0,0.0,65,0.00,,,0.00,Wunderground v.1.15,2013-02-14 03:38:00,
2013-02-13 20:40:00,26.6,16.4,30.45,WNW,303,0.0,0.0,65,0.00,,,0.00,Wunderground v.1.15,2013-02-14 03:40:00,
2013-02-13 20:42:00,26.4,16.6,30.45,NW,304,0.0,0.0,66,0.00,,,0.00,Wunderground v.1.15,2013-02-14 03:42:00,
2013-02-13 20:50:00,26.1,16.3,30.46,WNW,303,0.0,2.0,66,0.00,,,0.00,Wunderground v.1.15,2013-02-14 03:50:00,
2013-02-13 20:52:00,26.1,16.3,30.46,WNW,303,0.0,0.0,66,0.00,,,0.00,Wunderground v.1.15,2013-02-14 03:52:00,
2013-02-13 20:58:00,25.8,16.3,30.46,WNW,303,0.0,0.0,67,0.00,,,0.00,Wunderground v.1.15,2013-02-14 03:58:00,
2013-02-13 21:00:00,25.7,16.6,30.46,WNW,303,0.0,0.0,68,0.00,,,0.00,Wunderground v.1.15,2013-02-14 04:00:00,
2013-02-13 21:06:00,25.1,16.4,30.47,WNW,303,0.0,1.0,69,0.00,,,0.00,Wunderground v.1.15,2013-02-14 04:06:00,
2013-02-13 21:08:00,25.0,16.3,30.47,WNW,303,0.0,1.0,69,0.00,,,0.00,Wunderground v.1.15,2013-02-14 04:08:00,
2013-02-13 21:12:00,24.7,16.3,30.47,WNW,303,0.0,0.0,70,0.00,,,0.00,Wunderground v.1.15,2013-02-14 04:12:00,
2013-02-13 21:14:00,24.7,16.3,30.47,WNW,303,0.0,0.0,70,0.00,,,0.00,Wunderground v.1.15,2013-02-14 04:14:00,
2013-02-13 21:16:00,24.5,16.1,30.45,WNW,303,0.0,0.0,70,0.00,,,0.00,Wunderground v.1.15,2013-02-14 04:16:00,
2013-02-13 21:20:00,24.4,16.0,30.45,WNW,303,0.0,1.0,70,0.00,,,0.00,Wunderground v.1.15,2013-02-14 04:20:00,
2013-02-13 21:22:00,24.4,16.0,30.45,WNW,303,0.0,1.0,70,0.00,,,0.00,Wunderground v.1.15,2013-02-14 04:22:00,
2013-02-13 21:26:00,24.2,15.8,30.45,WNW,303,0.0,1.0,70,0.00,,,0.00,Wunderground v.1.15,2013-02-14 04:26:00,
2013-02-13 21:28:00,24.1,15.7,30.45,WNW,303,0.0,1.0,70,0.00,,,0.00,Wunderground v.1.15,2013-02-14 04:28:00,
2013-02-13 21:34:00,23.9,15.5,30.45,WNW,303,0.0,0.0,70,0.00,,,0.00,Wunderground v.1.15,2013-02-14 04:34:00,
2013-02-13 21:36:00,23.9,15.5,30.45,WNW,303,0.0,0.0,70,0.00,,,0.00,Wunderground v.1.15,2013-02-14 04:36:00,
2013-02-13 21:40:00,23.9,15.5,30.45,WNW,303,0.0,0.0,70,0.00,,,0.00,Wunderground v.1.15,2013-02-14 04:40:00,
2013-02-13 21:42:00,23.9,15.5,30.45,WNW,303,0.0,0.0,70,0.00,,,0.00,Wunderground v.1.15,2013-02-14 04:42:00,
2013-02-13 21:44:00,23.9,15.5,30.45,WNW,303,0.0,0.0,70,0.00,,,0.00,Wunderground v.1.15,2013-02-14 04:44:00,
2013-02-13 21:46:00,23.9,15.5,30.45,WNW,303,0.0,0.0,70,0.00,,,0.00,Wunderground v.1.15,2013-02-14 04:46:00,
2013-02-13 21:50:00,23.9,15.5,30.45,WNW,303,0.0,1.0,70,0.00,,,0.00,Wunderground v.1.15,2013-02-14 04:50:00,
2013-02-13 21:52:00,23.9,15.5,30.45,WNW,303,0.0,0.0,70,0.00,,,0.00,Wunderground v.1.15,2013-02-14 04:52:00,
2013-02-13 21:56:00,23.8,15.4,30.45,WNW,303,0.0,0.0,70,0.00,,,0.00,Wunderground v.1.15,2013-02-14 04:56:00,
2013-02-13 21:58:00,23.9,15.5,30.45,WNW,303,0.0,0.0,70,0.00,,,0.00,Wunderground v.1.15,2013-02-14 04:58:00,
2013-02-13 22:01:00,23.9,15.5,30.45,WNW,303,0.0,0.0,70,0.00,,,0.00,Wunderground v.1.15,2013-02-14 05:01:00,
2013-02-13 22:02:00,23.8,15.4,30.45,WNW,303,0.0,0.0,70,0.00,,,0.00,Wunderground v.1.15,2013-02-14 05:02:00,
2013-02-13 22:06:00,23.8,15.4,30.45,WNW,303,0.0,0.0,70,0.00,,,0.00,Wunderground v.1.15,2013-02-14 05:06:00,
2013-02-13 22:08:00,23.8,15.4,30.45,WNW,303,0.0,0.0,70,0.00,,,0.00,Wunderground v.1.15,2013-02-14 05:08:00,
2013-02-13 22:10:00,23.8,15.4,30.45,WNW,303,0.0,0.0,70,0.00,,,0.00,Wunderground v.1.15,2013-02-14 05:10:00,
2013-02-13 22:12:00,23.8,15.4,30.45,WNW,303,0.0,0.0,70,0.00,,,0.00,Wunderground v.1.15,2013-02-14 05:12:00,
2013-02-13 22:16:00,23.8,15.1,30.44,WNW,303,0.0,1.0,69,0.00,,,0.00,Wunderground v.1.15,2013-02-14 05:16:00,
2013-02-13 22:18:00,23.8,15.1,30.44,WNW,303,0.0,1.0,69,0.00,,,0.00,Wunderground v.1.15,2013-02-14 05:18:00,
2013-02-13 22:20:00,23.8,15.1,30.44,WNW,303,0.0,0.0,69,0.00,,,0.00,Wunderground v.1.15,2013-02-14 05:20:00,
2013-02-13 22:22:00,23.8,15.1,30.44,WNW,303,0.0,0.0,69,0.00,,,0.00,Wunderground v.1.15,2013-02-14 05:22:00,
2013-02-13 22:26:00,23.6,14.9,30.44,WNW,303,0.0,0.0,69,0.00,,,0.00,Wunderground v.1.15,2013-02-14 05:26:00,
2013-02-13 22:28:00,23.6,14.9,30.44,WNW,303,0.0,0.0,69,0.00,,,0.00,Wunderground v.1.15,2013-02-14 05:28:00,
2013-02-13 22:30:00,23.6,14.9,30.44,WNW,303,0.0,0.0,69,0.00,,,0.00,Wunderground v.1.15,2013-02-14 05:30:00,
2013-02-13 22:32:00,23.6,14.9,30.44,WNW,303,0.0,0.0,69,0.00,,,0.00,Wunderground v.1.15,2013-02-14 05:32:00,
2013-02-13 22:34:00,23.6,14.9,30.44,WNW,303,0.0,0.0,69,0.00,,,0.00,Wunderground v.1.15,2013-02-14 05:34:00,
2013-02-13 22:36:00,23.5,15.1,30.44,WNW,303,0.0,0.0,70,0.00,,,0.00,Wunderground v.1.15,2013-02-14 05:36:00,
2013-02-13 22:40:00,23.5,15.1,30.44,WNW,303,0.0,0.0,70,0.00,,,0.00,Wunderground v.1.15,2013-02-14 05:40:00,
2013-02-13 22:44:00,23.6,14.9,30.44,WNW,303,0.0,0.0,69,0.00,,,0.00,Wunderground v.1.15,2013-02-14 05:44:00,
2013-02-13 22:46:00,23.6,14.9,30.44,WNW,303,0.0,0.0,69,0.00,,,0.00,Wunderground v.1.15,2013-02-14 05:46:00,
2013-02-13 22:50:00,23.6,14.9,30.44,WNW,303,0.0,0.0,69,0.00,,,0.00,Wunderground v.1.15,2013-02-14 05:50:00,
2013-02-13 22:52:00,23.6,14.9,30.44,WNW,303,0.0,0.0,69,0.00,,,0.00,Wunderground v.1.15,2013-02-14 05:52:00,
2013-02-13 22:56:00,23.5,14.8,30.44,WNW,303,0.0,0.0,69,0.00,,,0.00,Wunderground v.1.15,2013-02-14 05:56:00,
2013-02-13 22:58:00,23.5,14.8,30.44,WNW,303,0.0,0.0,69,0.00,,,0.00,Wunderground v.1.15,2013-02-14 05:58:00,
2013-02-13 23:00:00,23.3,14.6,30.44,WNW,303,0.0,0.0,69,0.00,,,0.00,Wunderground v.1.15,2013-02-14 06:00:00,
2013-02-13 23:02:00,23.2,14.5,30.45,WNW,303,0.0,0.0,69,0.00,,,0.00,Wunderground v.1.15,2013-02-14 06:02:00,
2013-02-13 23:04:00,23.2,14.5,30.45,WNW,303,0.0,0.0,69,0.00,,,0.00,Wunderground v.1.15,2013-02-14 06:04:00,
2013-02-13 23:08:00,23.0,14.7,30.45,WNW,303,0.0,0.0,70,0.00,,,0.00,Wunderground v.1.15,2013-02-14 06:08:00,
2013-02-13 23:12:00,22.9,14.6,30.45,WNW,303,0.0,0.0,70,0.00,,,0.00,Wunderground v.1.15,2013-02-14 06:12:00,
2013-02-13 23:14:00,22.9,14.6,30.45,WNW,303,0.0,0.0,70,0.00,,,0.00,Wunderground v.1.15,2013-02-14 06:14:00,
2013-02-13 23:16:00,22.9,14.6,30.44,WNW,303,0.0,0.0,70,0.00,,,0.00,Wunderground v.1.15,2013-02-14 06:16:00,
2013-02-13 23:18:00,22.9,14.6,30.44,WNW,303,0.0,0.0,70,0.00,,,0.00,Wunderground v.1.15,2013-02-14 06:18:00,
2013-02-13 23:20:00,22.7,14.7,30.44,WNW,303,0.0,0.0,71,0.00,,,0.00,Wunderground v.1.15,2013-02-14 06:20:00,
2013-02-13 23:22:00,22.9,14.9,30.44,WNW,303,0.0,0.0,71,0.00,,,0.00,Wunderground v.1.15,2013-02-14 06:22:00,
2013-02-13 23:28:00,22.9,14.9,30.44,WNW,303,0.0,0.0,71,0.00,,,0.00,Wunderground v.1.15,2013-02-14 06:28:00,
2013-02-13 23:30:00,23.0,15.0,30.44,WNW,303,0.0,0.0,71,0.00,,,0.00,Wunderground v.1.15,2013-02-14 06:30:00,
2013-02-13 23:32:00,23.0,15.0,30.44,WNW,303,0.0,0.0,71,0.00,,,0.00,Wunderground v.1.15,2013-02-14 06:32:00,
2013-02-13 23:36:00,23.0,15.0,30.44,WNW,303,0.0,0.0,71,0.00,,,0.00,Wunderground v.1.15,2013-02-14 06:36:00,
2013-02-13 23:38:00,23.0,15.0,30.44,WNW,302,0.0,1.0,71,0.00,,,0.00,Wunderground v.1.15,2013-02-14 06:38:00,
2013-02-13 23:40:00,23.0,15.3,30.44,WNW,303,0.0,0.0,72,0.00,,,0.00,Wunderground v.1.15,2013-02-14 06:40:00,
2013-02-13 23:42:00,23.0,15.3,30.44,WNW,303,0.0,0.0,72,0.00,,,0.00,Wunderground v.1.15,2013-02-14 06:42:00,
2013-02-13 23:44:00,23.0,15.3,30.44,WNW,303,0.0,0.0,72,0.00,,,0.00,Wunderground v.1.15,2013-02-14 06:44:00,
2013-02-13 23:46:00,23.0,15.3,30.44,WNW,303,0.0,0.0,72,0.00,,,0.00,Wunderground v.1.15,2013-02-14 06:46:00,
2013-02-13 23:48:00,23.0,15.3,30.44,WNW,303,0.0,0.0,72,0.00,,,0.00,Wunderground v.1.15,2013-02-14 06:48:00,
2013-02-13 23:50:00,23.0,15.3,30.44,WNW,303,0.0,1.0,72,0.00,,,0.00,Wunderground v.1.15,2013-02-14 06:50:00,
2013-02-13 23:54:00,23.0,14.7,30.44,WNW,303,0.0,1.0,70,0.00,,,0.00,Wunderground v.1.15,2013-02-14 06:54:00,
2013-02-13 23:56:00,23.0,14.7,30.44,WNW,303,0.0,1.0,70,0.00,,,0.00,Wunderground v.1.15,2013-02-14 06:56:00,
2013-02-13 23:58:00,23.0,15.0,30.44,WNW,303,0.0,1.0,71,0.00,,,0.00,Wunderground v.1.15,2013-02-14 06:58:00,